Miscellaneous Local Product
Issued by NWS Hastings, NE

Home | Current Version | Previous Version | Text Only | Print | Product List | Glossary On
Versions: 1 2 3 4 5 6 7 8 9 10 11 12 13 14 15 16 17 18 19 20 21 22 23 24 25 26 27 28 29 30 31 32 33 34 35 36 37 38 39 40 41 42 43 44 45 46 47 48 49 50
880
AXUS43 KGID 280002
MISGRI

GID CWA HOURLY WEATHER ROUNDUP
NATIONAL WEATHER SERVICE HASTINGS NE
700 PM CDT SAT MAY 27 2017

NOTE: "FAIR" INDICATES FEW OR NO CLOUDS BELOW 12,000 FEET WITH NO
SIGNIFICANT WEATHER AND/OR OBSTRUCTIONS TO VISIBILITY.

...SOUTH CENTRAL NEBRASKA...

CITY           SKY/WX    TMP DP  RH WIND       PRES   REMARKS
GRAND ISLAND   CLOUDY    66  54  65 N17       29.96R
HASTINGS       CLOUDY    68  53  58 N20       29.96R
KEARNEY        CLOUDY    66  52  59 N15       29.98S
ORD            CLOUDY    62  50  64 NW12      29.98R
YORK           CLOUDY    72  48  43 N12       29.93R
AURORA         CLOUDY    68  51  54 N20G25    29.95R
LEXINGTON      MOSUNNY   65  54  67 N10       30.00S
HOLDREGE       CLOUDY    65  52  62 N13       29.99R
HEBRON         CLOUDY    75  54  48 NE6       29.90R

...NEBRASKA PANHANDLE...

CITY           SKY/WX    TMP DP  RH WIND       PRES   REMARKS
CHADRON        CLOUDY    64  41  42 SE3       30.06R
ALLIANCE       SUNNY     61  44  53 W9        30.07F
SCOTTSBLUFF    CLOUDY    63  41  44 W7        30.10S
SIDNEY         MOSUNNY   60  42  51 N15       30.13R

...WESTERN AND NORTH CENTRAL NEBRASKA...

CITY           SKY/WX    TMP DP  RH WIND       PRES   REMARKS
VALENTINE      SUNNY     68  45  43 SW8       29.97F
AINSWORTH      PTSUNNY   61  46  57 SW5       29.99F
ONEILL         CLOUDY    64  52  64 W8        29.97F
BROKEN BOW     CLOUDY    61  51  70 NW14      30.01R
IMPERIAL       CLOUDY    62  49  62 NE3       30.05F
NORTH PLATTE   CLOUDY    62  52  69 NW3       30.03S
MCCOOK         CLOUDY    66  51  58 NW12      30.03R

...EASTERN NEBRASKA...

CITY           SKY/WX    TMP DP  RH WIND       PRES   REMARKS
NORFOLK        CLOUDY    66  50  56 NW12      29.92S
SO SIOUX CITY  MOSUNNY   68  53  58 N14       29.91S
TEKAMAH        CLOUDY    71  50  47 E7        29.89R
ALBION         CLOUDY    66  49  55 N5        29.96S
OMAHA EPPLEY   PTSUNNY   69  53  56 NE7       29.89S
OFFUTT AFB     MOSUNNY   69  55  60 NE5       29.89S
MILLARD        CLOUDY    72  57  59 E5        29.90R
LINCOLN        CLOUDY    72  57  59 E10       29.90R
NEBRASKA CITY  CLOUDY    69  57  65 N9        29.89S
BEATRICE       PTSUNNY   72  60  66 NE8       29.89R
FALLS CITY     CLOUDY    70  61  73 N6        29.85F

...NORTHERN KANSAS...

CITY           SKY/WX    TMP DP  RH WIND       PRES   REMARKS
GOODLAND       LGT RAIN  55  51  86 NW9       30.09R
HILL CITY      PTSUNNY   70  55  59 N17       29.98R
NORTON         CLOUDY    64  52  63 NW10      29.99R
PHILLIPSBURG   CLOUDY    70  54  56 NW13G24   29.96R
SMITH CENTER   CLOUDY    72  54  53 N12       29.93R
HAYS           CLOUDY    71  58  63 N14       29.93R
RUSSELL        CLOUDY    71  58  63 N16       29.91R
CONCORDIA      PTSUNNY   73  62  68 N7        29.89R
SALINA         MOSUNNY   76  63  64 N15       29.86S
TOPEKA         SUNNY     76  65  68 N12       29.81F



USA.gov is the U.S. government's official web portal to all federal, state and local government web resources and services.